STARLINK-35835

Last updated on Wed Dec 31 2025 00:02:06 GMT+0000 (Coordinated Universal Time)

1 66569U 25268N 25364.58335648 -.00587622 00000+0 -22017-1 0 9991 2 66569 43.0004 16.9710 0001922 276.8754 134.7443 15.28741241 6021
UTC large
Height (km)
Speed (km/s)
/
Latitude / Longitude
Inclination (degrees)
Orbital Period (minutes)
Azimuth
Elevation
Range (km)
Doppler Factor

Next 0 passes for location: London (51.5072 / 0.1276)

Sorry there are no passes over London.